Location: Newark
(50.4348°N, 30.5552°E)
Time: 15:15:52
(UTC+00:00)

Tiros 1 despin weight - Pass Details

Date: 31 January 2020
Orbit: 594 x 642 km, 48.2° (Epoch: 16 February)

Event Time Altitude Azimuth Distance (km) Brightness Sun altitude
Rises 11:20:52 0° 278° (W) 2,879 ? 20.4°
Reaches altitude 10° 11:23:13 10° 272° (W) 1,981 ? 20.3°
Maximum altitude 11:27:35 47° 199° (SSW) 830 ? 20.1°
Drops below altitude 10° 11:32:00 10° 126° (SE) 2,004 ? 19.8°
Sets 11:34:24 0° 121° (ESE) 2,917 ? 19.7°
